Date String (YYYY-MM-DD hh:mm:ss) UTC,Instrument flags,Ambient pressure (hPa),Sample flow (lpm),Bypass flow (lpm),Sample temperature (°C),Ambient temperature (°C),ASC tube jacket temperature (°C),LED temperature (°C),Box temperature (°C),Sample RH (%),Span deviation,Mass concentration (μg/m³),Mass concentration (μg/m³),Mass concentration (μg/m³)
DateTimeUTC,F1_M11,P_M11,Q1_M11,Q2_M11,T1_M11,T2_M11,T3_M11,T4_M11,T5_M11,U1_M11,ZSPAN_M11,X2_M11,X0_M11,X1_M11
2022-08-16 08:00:00,,0830.4,5.00,0.00,30.9,27.8,00.0,39.7,32.0,35.0,0000.0,0003.52,0004.95,0003.27
2022-08-16 08:01:00,,0830.4,4.99,0.00,31.0,28.0,00.0,39.7,32.1,36.9,0000.0,0003.50,0005.11,0003.26
2022-08-16 08:02:00,,0830.4,5.01,0.00,31.2,28.1,00.0,39.6,32.2,35.5,0000.0,0003.49,0005.27,0003.24
2022-08-16 08:03:00,,0830.4,5.00,0.00,31.5,28.2,00.0,39.6,32.4,33.8,0000.0,0003.48,0006.56,0003.22
2022-08-16 08:04:00,,0830.4,5.00,0.00,31.6,28.4,00.0,39.6,32.4,32.6,0000.0,0003.47,0006.66,0003.18
2022-08-16 08:05:00,,0830.4,5.00,0.00,31.7,28.5,00.0,39.6,32.3,33.1,0000.0,0003.45,0006.68,0003.15
2022-08-16 08:06:00,,0830.4,5.00,0.00,31.7,28.6,00.0,39.7,32.3,33.1,0000.0,0003.47,0007.18,0003.14
2022-08-16 08:07:00,,0830.3,5.00,0.00,31.7,28.6,00.0,39.7,32.3,32.3,0000.0,0003.48,0007.25,0003.13
2022-08-16 08:08:00,,0830.2,4.99,0.00,31.7,28.7,00.0,39.7,32.3,32.3,0000.0,0003.46,0007.21,0003.12
2022-08-16 08:09:00,,0830.3,5.01,0.00,31.7,28.8,00.0,39.8,32.3,32.2,0000.0,0003.45,0007.09,0003.13
2022-08-16 08:10:00,,0830.3,5.00,0.00,31.6,28.8,00.0,39.8,32.3,32.3,0000.0,0003.44,0006.99,0003.14
2022-08-16 08:11:00,,0830.2,5.00,0.00,31.6,28.9,00.0,39.8,32.3,32.4,0000.0,0003.46,0006.95,0003.16
2022-08-16 08:12:00,,0830.2,5.00,0.00,31.5,28.9,00.0,39.8,32.4,32.3,0000.0,0003.47,0006.75,0003.18
2022-08-16 08:13:00,,0830.2,5.00,0.00,31.5,29.0,00.0,39.8,32.4,31.5,0000.0,0003.45,0006.40,0003.18
2022-08-16 08:14:00,,0830.2,5.00,0.00,31.5,29.0,00.0,39.9,32.4,30.9,0000.0,0003.43,0005.10,0003.18
2022-08-16 08:15:00,,0830.1,4.99,0.00,31.5,29.0,00.0,39.9,32.4,31.4,0000.0,0003.43,0005.08,0003.18
2022-08-16 08:16:00,,0830.1,5.00,0.00,31.4,29.1,00.0,39.9,32.4,31.8,0000.0,0003.45,0005.15,0003.18
2022-08-16 08:17:00,,0830.1,5.01,0.00,31.4,29.1,00.0,39.9,32.4,31.6,0000.0,0003.42,0004.70,0003.18
2022-08-16 08:18:00,,0830.1,5.01,0.00,31.4,29.1,00.0,39.9,32.4,32.1,0000.0,0003.40,0004.57,0003.17
2022-08-16 08:19:00,,0830.2,5.00,0.00,31.3,29.2,00.0,39.9,32.4,32.5,0000.0,0003.39,0004.57,0003.17
2022-08-16 08:20:00,,0830.1,5.00,0.00,31.3,29.2,00.0,39.9,32.5,32.2,0000.0,0003.40,0004.70,0003.16
2022-08-16 08:21:00,,0830.1,4.99,0.00,31.3,29.2,00.0,39.8,32.5,32.0,0000.0,0003.42,0004.81,0003.15
2022-08-16 08:22:00,,0830.1,5.01,0.00,31.3,29.2,00.0,39.8,32.5,31.8,0000.0,0003.42,0005.55,0003.13
2022-08-16 08:23:00,,0830.1,5.00,0.00,31.3,29.3,00.0,39.8,32.5,31.7,0000.0,0003.40,0006.10,0003.11
2022-08-16 08:24:00,,0830.1,5.00,0.00,31.2,29.3,00.0,39.8,32.5,31.7,0000.0,0003.39,0006.10,0003.08
2022-08-16 08:25:00,,0830.1,5.00,0.00,31.2,29.3,00.0,39.8,32.5,31.5,0000.0,0003.40,0006.16,0003.08
2022-08-16 08:26:00,,0830.1,5.00,0.00,31.2,28.9,00.0,39.8,32.4,31.6,0000.0,0003.36,0006.00,0003.08
2022-08-16 08:27:00,,0830.0,4.99,0.00,31.1,28.2,00.0,39.7,32.2,31.8,0000.0,0003.34,0005.94,0003.07
2022-08-16 08:28:00,,0830.1,5.01,0.00,31.0,27.9,00.0,39.7,32.1,31.9,0000.0,0003.34,0005.95,0003.05
2022-08-16 08:29:00,,0830.1,5.00,0.00,30.9,27.8,00.0,39.6,32.0,32.2,0000.0,0003.35,0006.07,0003.04
2022-08-16 08:30:00,,0830.1,5.00,0.00,30.8,27.9,00.0,39.6,32.0,32.4,0000.0,0003.36,0006.12,0003.03
2022-08-16 08:31:00,,0830.1,4.99,0.00,30.8,28.0,00.0,39.5,32.0,33.2,0000.0,0003.34,0005.95,0003.02
2022-08-16 08:32:00,,0830.0,5.01,0.00,30.7,28.1,00.0,39.5,32.0,34.2,0000.0,0003.32,0005.88,0003.02
2022-08-16 08:33:00,,0830.0,5.00,0.00,30.7,28.2,00.0,39.5,32.0,34.3,0000.0,0003.30,0005.11,0003.02
2022-08-16 08:34:00,,0830.1,4.99,0.00,30.6,28.4,00.0,39.4,32.0,34.3,0000.0,0003.31,0004.52,0003.03
2022-08-16 08:35:00,,0830.1,5.00,0.00,30.6,28.5,00.0,39.4,32.0,34.3,0000.0,0003.33,0004.59,0003.06
2022-08-16 08:36:00,,0830.1,5.00,0.00,30.6,28.6,00.0,39.4,32.0,34.1,0000.0,0003.34,0004.58,0003.08
2022-08-16 08:37:00,,0830.1,5.01,0.00,30.6,28.6,00.0,39.4,32.0,34.4,0000.0,0003.37,0004.68,0003.09
2022-08-16 08:38:00,,0830.1,5.00,0.00,30.6,28.7,00.0,39.3,32.1,34.0,0000.0,0003.39,0004.67,0003.11
2022-08-16 08:39:00,,0830.1,5.00,0.00,30.6,28.8,00.0,39.3,32.1,34.0,0000.0,0003.39,0004.55,0003.13
2022-08-16 08:40:00,,0830.1,5.00,0.00,30.6,28.8,00.0,39.3,32.1,33.7,0000.0,0003.37,0004.39,0003.13
2022-08-16 08:41:00,,0830.1,4.98,0.00,30.6,28.9,00.0,39.3,32.1,33.4,0000.0,0003.39,0004.64,0003.14
2022-08-16 08:42:00,,0830.1,5.01,0.00,30.6,28.9,00.0,39.3,32.1,33.2,0000.0,0003.40,0004.72,0003.14
2022-08-16 08:43:00,,0830.1,5.00,0.00,30.6,29.0,00.0,39.3,32.1,33.4,0000.0,0003.41,0004.72,0003.15
2022-08-16 08:44:00,,0830.1,5.00,0.00,30.6,29.0,00.0,39.3,32.1,33.7,0000.0,0003.43,0004.82,0003.16
2022-08-16 08:45:00,,0830.1,4.99,0.00,30.6,29.0,00.0,39.3,32.2,33.7,0000.0,0003.43,0004.92,0003.16
2022-08-16 08:46:00,,0830.1,5.00,0.00,30.6,29.1,00.0,39.3,32.2,33.8,0000.0,0003.43,0004.98,0003.15
2022-08-16 08:47:00,,0830.1,5.00,0.00,30.6,29.1,00.0,39.3,32.2,33.6,0000.0,0003.44,0005.00,0003.16
2022-08-16 08:48:00,,0830.1,5.00,0.00,30.6,29.1,00.0,39.3,32.2,33.7,0000.0,0003.43,0004.97,0003.16
2022-08-16 08:49:00,,0830.1,5.01,0.00,30.6,29.2,00.0,39.3,32.2,34.1,0000.0,0003.43,0004.97,0003.16
2022-08-16 08:50:00,,0830.0,4.99,0.00,30.6,29.2,00.0,39.3,32.2,34.7,0000.0,0003.43,0005.00,0003.16
2022-08-16 08:51:00,,0830.0,5.01,0.00,30.6,29.1,00.0,39.3,32.2,34.7,0000.0,0003.44,0005.02,0003.16
2022-08-16 08:52:00,,0830.1,4.99,0.00,30.5,28.5,00.0,39.2,32.0,34.4,0000.0,0003.42,0004.75,0003.16
2022-08-16 08:53:00,,0830.1,5.01,0.00,30.5,28.0,00.0,39.2,31.9,33.7,0000.0,0003.46,0004.90,0003.18
2022-08-16 08:54:00,,0830.1,4.99,0.00,30.3,27.8,00.0,39.1,31.7,33.7,0000.0,0003.51,0005.19,0003.19
2022-08-16 08:55:00,,0830.1,5.00,0.00,30.2,27.8,00.0,39.1,31.7,33.9,0000.0,0003.54,0005.29,0003.20
2022-08-16 08:56:00,,0830.1,5.00,0.00,30.2,27.9,00.0,39.1,31.8,34.1,0000.0,0003.54,0005.39,0003.20
2022-08-16 08:57:00,,0830.1,4.99,0.00,30.2,28.0,00.0,39.0,31.7,34.7,0000.0,0003.54,0005.62,0003.21
2022-08-16 08:58:00,,0830.0,5.00,0.00,30.2,28.2,00.0,39.0,31.7,34.5,0000.0,0003.54,0005.65,0003.20
2022-08-16 08:59:00,,0830.1,5.01,0.00,30.1,28.3,00.0,39.0,31.7,34.3,0000.0,0003.52,0005.56,0003.20
